Location: Recife
(8.0585°S, 34.8848°W)
Time: 21:06:13
(UTC-03:00)

Vanguard 2 - Pass Details

Date: 21 April 2026
Orbit: 553 x 2895 km, 32.9° (Epoch: 17 May)

Event Time Altitude Azimuth Distance (km) Brightness Sun altitude
Exits shadow 03:01:28 35° 208° (SSW) 3,622 10.5 -35.0°
Maximum altitude 03:08:17 53° 154° (SSE) 2,683 10.2 -33.3°
Drops below altitude 10° 03:19:10 10° 79° (E) 3,945 12.0 -30.7°
Sets 03:21:55 0° 74° (ENE) 4,652 12.7 -30.0°
